Regional Weather Roundup
Issued by NWS

Home | Current Version | Previous Version | Graphics & Text | Print | Product List | Glossary On
Versions: 1 2 3 4 5 6 7 8 9 10 11 12 13 14 15 16 17 18 19 20 21 22 23 24 25 26 27 28 29 30 31 32 33 34 35 36 37 38 39 40 41 42 43 44 45 46 47 48 49 50
000
ASUS43 KDMX 241301
RWRIA

WEATHER ROUNDUP FOR IOWA
NATIONAL WEATHER SERVICE DES MOINES IA
800 AM CDT WED MAY 24 2017

NOTE: "FAIR" INDICATES FEW OR NO CLOUDS BELOW 12,000 FEET WITH NO
SIGNIFICANT WEATHER AND/OR OBSTRUCTIONS TO VISIBILITY.

* - THESE STATIONS ARE NOT NWS STATIONS...THUS NOT UNDER NWS
QUALITY CONTROL.  THEY ALSO DO NOT REPORT WEATHER SUCH
AS PRECIPITATION OR FOG.

IAZ001>003-012>014-020>022-031>034-043>046-241400-
   NORTHWEST IOWA

CITY           SKY/WX    TMP DP  RH WIND       PRES   REMARKS
CARROLL *      MOSUNNY   50  50 100 N10       29.74S
CHEROKEE *     MOSUNNY   49  48  97 N10       29.78S
DENISON *      PTSUNNY   50  46  87 N7        29.78S
LE MARS *      PTSUNNY   48  46  93 N8        29.81S
ORANGE CITY *  FOG       46  46 100 N13G18    29.80S VSB 3/4
SHELDON *      CLOUDY    46  46 100 N13         N/A
SIOUX CITY     CLOUDY    48  47  96 N8        29.80F
SPENCER        CLOUDY    48  45  89 N14       29.78S
STORM LAKE *   MOSUNNY   48  45  87 N15       29.77R
$$

IAZ055>058-069>071-079>083-090>094-241400-
   SOUTHWEST IOWA

CITY           SKY/WX    TMP DP  RH WIND       PRES   REMARKS
ATLANTIC *     PTSUNNY   50  48  93 N14       29.74R
AUDUBON *      MOSUNNY   50  46  87 N9        29.74S
CLARINDA *     CLOUDY    54  48  82 N13G18    29.75S
COUNCIL BLFS * SUNNY     50  50 100 N13G21    29.77R
CRESTON *      CLOUDY    52  50  93 N15       29.71R
HARLAN  *      MOSUNNY   50  48  93 N14       29.78S
LAMONI         CLOUDY    52  50  93 N9        29.67S
RED OAK *      CLOUDY    54  48  82 N13G18    29.75R
SHENANDOAH *   CLOUDY    52  48  87 N13       29.76R
$$

IAZ047>049-059>061-072>074-084-241400-
   CENTRAL IOWA

CITY           SKY/WX    TMP DP  RH WIND       PRES   REMARKS
AMES           CLOUDY    52  50  93 N9        29.69S
ANKENY *       CLOUDY    54  50  87 N12       29.69S
BOONE *        CLOUDY    50  50 100 N13       29.70R
CHARITON *     CLOUDY    52  50  93 N9        29.66S
DES MOINES     CLOUDY    54  51  90 N9        29.68R
GRINNELL*      CLOUDY    52  50  92 N10       29.68R
KNOXVILLE *    CLOUDY    54  50  87 N10       29.65S
MARSHALLTOWN   CLOUDY    51  50  96 N13       29.67S
NEWTON *       CLOUDY    54  50  87 N12       29.66S
PELLA *        CLOUDY    53  51  94 N7        29.67S
PERRY *        CLOUDY    53  50  90 N13       29.71S
$$

IAZ004>006-015-016-023>025-035-036-241400-
   NORTH CENTRAL IOWA

CITY           SKY/WX    TMP DP  RH WIND       PRES   REMARKS
ALGONA *       CLOUDY    48  48 100 N13       29.75S
CLARION *      PTSUNNY   50  50 100 N15       29.72S
ESTHERVILLE    CLOUDY    46  46 100 N14       29.77R
FORT DODGE *   CLOUDY    52  46  82 N8        29.74S
MASON CITY     CLOUDY    49  47  93 N14       29.73F
FOREST CITY *  PTSUNNY   52  46  82 N10       29.74R
WEBSTER CITY *   N/A     52  48  87 N14G20    29.70R
IOWA FALLS *   CLOUDY    51  49  90 N10       29.71R
$$

IAZ007>011-017>019-026>030-037>042-050>054-066-241400-
   NORTHEAST IOWA

CITY           SKY/WX    TMP DP  RH WIND       PRES   REMARKS
CEDAR RAPIDS   CLOUDY    52  52 100 N13       29.64R FOG
CHARLES CITY * CLOUDY    52  50  93 NE10      29.71R
CLINTON *      PTSUNNY   54  53  97 N12       29.63F
DECORAH *      CLOUDY    50  48  93 N9        29.68S
DUBUQUE        CLOUDY    51  49  92 NE8       29.65S
MONTICELLO *   CLOUDY    52  50  93 N9        29.65R
OELWEIN *      CLOUDY    52  50  93 NE14      29.68R
WATERLOO       CLOUDY    51  48  89 NE12      29.68R
$$

IAZ064-065-067-068-078-241400-
   EAST CENTRAL IOWA

CITY           SKY/WX    TMP DP  RH WIND       PRES   REMARKS
DAVENPORT      CLOUDY    52  52 100 NE8       29.63F
IOWA CITY      CLOUDY    55  51  86 N8        29.65S
MT. PLEASANT * CLOUDY    50  50 100 N8        29.64R FOG
MUSCATINE *    CLOUDY    52  50  93 N8        29.63F
QUAD CITIES    CLOUDY    54  50  86 NE5       29.62S FOG
$$

IAZ062-063-075>077-085>089-095>099-241400-
   SOUTHEAST IOWA

CITY           SKY/WX    TMP DP  RH WIND       PRES   REMARKS
BURLINGTON     CLOUDY    51  50  96 N8        29.62S
FAIRFIELD *    FOG       50  48  93 NW7       29.63F VSB 1/2
FORT MADISON * PTSUNNY   52  52 100 NW7       29.63S
KEOKUK *       MOSUNNY   52  50  93 N6        29.62S
OSKALOOSA *    CLOUDY    50  49  97 N5        29.66R
OTTUMWA        PTSUNNY   52  51  97 N10       29.65R
WASHINGTON *   PTSUNNY   52  52 100 N7        29.65S
$$

ABBREVIATIONS USED IN REMARKS
   TC - TEMPERATURES IN CELSIUS
  WCI - WIND CHILL INDEX
   HX - HEAT INDEX
  VSB - VISIBILITY
$$





USA.gov is the U.S. government's official web portal to all federal, state and local government web resources and services.